Weather in Chubkovichi

Russia / Bryansk Oblast     52°31′48″N   32°36′00″E
temp.,
°C
wind,
m/s
gust,
m/s
humid.,
%
clouds,
%
prec.,
mm/h
press.,
hPa
HPBL,
m
17 august, wed
wed1700:00+22ene61254100 0.0 1014309
03:00+21ene6135097 0.0 1012313
06:00+21ene5115658 0.0 1013269
09:00+21ene41062100 0.0 1012258
12:00+25ese71250100 0.0 10131078
15:00+23ene595890 0.0 1013505
18:00+22ene4960100 0.0 1012308
21:00+19ne4106879 0.0 1012184
18 august, thu
thu1800:00+18ene4126342 0.0 1012228
03:00+17ne5116861 0.0 1012206
06:00+18ene5126362 0.0 1013240
09:00+22ene6105710 0.0 1013443
12:00+26ene710445 0.0 10131033
15:00+29ne811375 0.0 10122000
18:00+27ne812482 0.0 1012890
21:00+21ne614575 0.0 1014444
19 august, fri
fri1900:00+19ne513661 0.0 1014323
03:00+18ne512674 0.0 1015272
06:00+17ene513655 0.0 1015294
09:00+21ene712605 0.0 1016652
12:00+25ene89535 0.0 10161487
15:00+24ene796293 0.1 10161385
18:00+21ene7107525 0.1 1017911
21:00+18ene61182100 0.1 1017584
20 august, sat
sat2000:00+17ene6118896 0.0 1017522
03:00+16ene5108738 0.0 1017394
06:00+16ene489367 0.0 1017279
09:00+19ene457421 0.0 1017510
12:00+22ese3464100 0.0 1016742
15:00+25se255875 0.1 1016975
18:00+21e61274100 1.9 1016409
21:00+19ese5136798 2.3 1017397
21 august, sun
sun2100:00+17e4116145 0.0 1016228
03:00+16e410600 0.0 1016173
06:00+16e411531 0.0 1016196
09:00+20ese7134928 0.1 1016572
12:00+25ese78385 0.1 1016915
15:00+26ese893421 0.1 10151147
18:00+24ese7114068 0.0 1015955
21:00+18e412495 0.0 1016221